{"data":{"norad_id":55829,"intl_designator":"2023-029AK","name":"ONEWEB-0670","alt_names":[],"object_type":"PAYLOAD","status":"ACTIVE","operator":null,"country":"UK","launch_date":"2023-03-09","launch_site_code":"AFETR","launch_vehicle":null,"mission":null,"orbit_class":"UNKNOWN","rcs_meters":null,"size_class":null,"mass_kg":null,"dimensions":null,"purposes":["comms"],"wikipedia_slug":null,"has_3d_model":false,"image_url":null,"decayed_at":null,"tle_current":{"epoch":"2026-05-25T03:33:58.644288Z","epoch_age_seconds":72421,"freshness":"FRESH","line1":"1 55829U 23029AK  26145.14859542 -.00000016  00000+0 -76895-4 0  9998","line2":"2 55829  87.8930 294.3379 0002025  86.5182 273.6179 13.14501851156402","mean_motion":13.14501851,"eccentricity":0.0002025,"inclination_deg":87.893,"raan_deg":294.3379,"arg_perigee_deg":86.5182,"mean_anomaly_deg":273.6179,"bstar":-7.6895e-5,"rev_number":15640,"period_min":109.54720215149,"perigee_km":1204.2582587415,"apogee_km":1207.3297507984,"semimajor_km":7583.93100477,"source":"CELESTRAK","updated_at":"2026-05-25T13:38:22.697793Z"}}}